1386374431113,5.39419
1386374491113,5.36635
1386374551113,5.34359
1386374611113,5.34117
1386374671113,5.30805
1386374731113,5.31377
1386374791113,5.26827
1386374851113,5.25869
1386374911113,5.23147
1386374971113,5.23034
1386375031113,5.20692
1386375091113,5.21045
1386375151113,5.21203
1386375211113,5.20991
1386375271113,5.21796
1386375331113,5.22989
1386375391113,5.20990
1386375451113,5.19272
1386375511113,5.18981
1386375571113,5.17843
1386375631113,5.18622
1386375691113,5.18401
1386375751113,5.15605
1386375811113,5.17200
1386375871113,5.17488
1386375931113,5.16650
1386375991113,5.17293
1386376051113,5.16099
1386376111113,5.19476
1386376171113,5.14912
1386376231113,5.14810
1386376291113,5.12847
1386376351113,5.13930
1386376411113,5.13583
1386376471113,5.13729
1386376531113,5.10543
1386376591113,5.15225
1386376651113,5.12021
1386376711113,5.18491
1386376771113,5.10253
1386376831113,5.10014
1386376891113,5.10707
1386376951113,5.10423
1386377011113,5.08429
1386377071113,5.11177
1386377131113,5.08670
1386377191113,5.10200
1386377251113,5.11156
1386377311113,5.11603
1386377371113,5.08604
1386377431113,5.09496
1386377491113,5.07688
1386377551113,5.06963
1386377611113,5.05436
1386377671113,5.06902
1386377731113,5.08960
1386377791113,5.07801
1386377851113,5.10566
1386377911113,5.06073
1386377971113,5.08979
1386378031123,5.06039
1386378091123,5.08102
1386378151123,5.06761
1386378211123,5.05763
1386378271123,5.08001
1386378331123,5.06816
1386378391123,5.06347
1386378451123,5.07460
1386378511123,5.08465
1386378571123,5.08789
1386378631123,5.07960
1386378691123,5.07029
1386378751123,5.07062
1386378811123,5.07089
1386378871123,5.12245
1386378931123,5.06914
1386378991123,5.07086
1386379051123,5.05336
1386379111123,5.07787
1386379171123,5.03369
1386379231123,5.08096
1386379291123,5.06306
1386379351123,5.04176
1386379411123,5.08675
1386379471123,5.04620
1386379531123,5.07025
1386379591123,5.03399
1386379651123,5.08540
1386379711123,5.09420
1386379771123,5.06498
1386379831123,5.07277
1386379891123,5.05557
1386379951123,5.04692
1386380011123,5.09715
1386380071123,5.04497
1386380131123,5.08159
1386380191123,5.09448
1386380251123,5.04423
1386380311123,5.09470
1386380371123,5.06189
1386380431123,5.02534
1386380491123,5.04310
1386380551123,5.03285
1386380611123,5.08443
1386380671123,5.06121
1386380731123,5.05098
1386380791123,5.05754
1386380851123,5.09705
1386380911123,5.04381
1386380971123,5.06783
1386381031123,5.02721
1386381091123,5.06654
1386381151123,5.03937
1386381211123,5.05404
1386381271123,5.06537
1386381331123,5.07740
1386381391123,5.04334
1386381451123,5.07222
1386381511123,5.02942
1386381571123,5.03425
1386381631133,5.06437
1386381691133,5.01598
1386381751133,5.04032
1386381811133,5.04516
1386381871133,5.05849
1386381931133,5.05737
1386381991133,5.01153
1386382051133,5.06238
1386382111133,5.04158
1386382171133,5.01992
1386382231133,5.01377
1386382291133,5.03821
1386382351133,5.00379
1386382411133,5.04948
1386382471133,5.05093
1386382531133,5.08941
1386382591133,5.01112
1386382651133,5.03430
1386382711133,5.04016
1386382771133,5.05926
1386382831133,5.03873
1386382891133,5.05641
1386382951133,5.09333
1386383011133,5.04229
1386383071133,5.06037
1386383131133,5.08378
1386383191133,5.04749
1386383251133,5.03089
1386383311133,5.05014
1386383371133,5.05990
1386383431133,5.05823
1386383491133,5.03770
1386383551133,5.01750
1386383611133,5.05048
1386383671133,5.03804
1386383731133,5.02830
1386383791133,5.00892
1386383851133,5.04394
1386383911133,5.01636
1386383971133,5.04012
1386384031133,5.02711
1386384091133,5.03734
1386384151133,5.03616
1386384211133,5.19649
1386384271133,5.04643
1386384331133,5.03473
1386384391133,5.03906
1386384451133,5.05674
1386384511133,5.03533
1386384571133,5.02950
1386384631133,5.03054
1386384691133,4.98622
1386384751133,5.07563
1386384811133,5.04780
1386384871133,5.02547
1386384931133,5.04843
1386384991133,5.01037
1386385051133,5.02570
1386385111133,5.05775
1386385171133,5.06287
1386385231143,5.02898
1386385291143,5.02326
1386385351143,5.04119
1386385411143,5.04521
1386385471143,5.03557
1386385531143,5.04376
1386385591143,5.03642
1386385651143,5.02748
1386385711143,5.04156
1386385771143,4.98127
1386385831143,5.00996
1386385891143,5.03573
1386385951143,5.01965
1386386011143,5.01672
1386386071143,5.02882
1386386131143,5.02888
1386386191143,5.07549
1386386251143,5.04264
1386386311143,5.04688
1386386371143,5.05763
1386386431143,5.05728
1386386491143,5.05378
1386386551143,5.03371
1386386611143,5.03198
1386386671143,5.04756
1386386731143,5.05347
1386386791143,5.05189
1386386851143,5.05433
1386386911143,5.06001
1386386971143,5.01984
1386387031143,5.02377
1386387091143,5.04639
1386387151143,5.03662
1386387211143,5.04788
1386387271143,5.02941
1386387331143,5.03423
1386387391143,5.02891
1386387451143,5.05598
1386387511143,5.02177
1386387571143,5.04847
1386387631143,5.02337
1386387691143,5.04202
1386387751143,5.02731
1386387811143,5.02988
1386387871143,5.02599
1386387931143,5.04048
1386387991143,5.04476
1386388051143,5.07442
1386388111143,5.04116
1386388171143,5.05641
1386388231143,5.02499
1386388291143,5.05915
1386388351143,5.01366
1386388411143,5.04937
1386388471143,5.05669
1386388531143,5.04640
1386388591143,5.01914
1386388651143,5.06918
1386388711143,5.04191
1386388771143,5.06846
1386388831153,5.04200
1386388891153,5.04790
1386388951153,4.97241
1386389011153,5.04015
1386389071153,5.02538
1386389131153,5.04986
1386389191153,5.01742
1386389251153,5.03438
1386389311153,5.02636
1386389371153,5.05400
1386389431153,5.04856
1386389491153,5.07977
1386389551153,5.02830
1386389611153,5.02916
1386389671153,5.06742
1386389731153,5.08723
1386389791153,5.03470
1386389851153,5.04128
1386389911153,5.05924
1386389971153,5.07419
1386390031153,5.04714
1386390091153,5.06027
1386390151153,5.02810
1386390211153,5.05461
1386390271153,5.02788
1386390331153,5.04570
1386390391153,5.07097
1386390451153,5.04901
1386390511153,5.05416
1386390571153,5.05370
1386390631153,5.06745
1386390691153,5.07917
1386390751153,5.11911
1386390811153,5.13412
1386390871153,5.20626
1386390931153,5.24194
1386390991153,5.28172
1386391051153,5.22478
1386391111153,5.25366
1386391171153,5.24042
1386391231153,5.23408
1386391291153,5.19878
1386391351153,5.19317
1386391411153,5.17493
1386391471153,5.15172
1386391531153,5.15108
1386391591153,5.13026
1386391651153,5.08826
1386391711153,5.10587
1386391771153,5.05901
1386391831153,5.03947
1386391891153,5.07295
1386391951153,5.08211
1386392011153,5.06124
1386392071153,5.06740
1386392131153,5.05858
1386392191153,5.06314
1386392251153,5.05734
1386392311153,5.06980
1386392371153,5.05019
1386392431163,5.06180
1386392491163,5.07563
1386392551163,5.05626
1386392611163,5.07890
1386392671163,5.02943
1386392731163,5.04724
1386392791163,5.06828
1386392851163,5.07327
1386392911163,5.08267
1386392971163,5.07049
1386393031163,5.08885
1386393091163,5.09558
1386393151163,5.08326
1386393211163,5.07577
1386393271163,5.06701
1386393331163,5.08500
1386393391163,5.12261
1386393451163,5.08406
1386393511163,5.03710
1386393571163,5.07807
1386393631163,5.06572
1386393691163,5.08541
1386393751163,5.10246
1386393811163,5.09193
1386393871163,5.09629
1386393931163,5.13081
1386393991163,5.10465
1386394051163,5.08914
1386394111163,5.04135
1386394171163,5.11380
1386394231163,5.09864
1386394291163,5.12200
1386394351163,5.08554
1386394411163,5.11197
1386394471163,5.06615
1386394531163,5.06779
1386394591163,5.06012
1386394651163,5.05346
1386394711163,5.07302
1386394771163,5.07864
1386394831163,5.06311
1386394891163,5.07785
1386394951163,5.04794
1386395011163,5.09645
1386395071163,5.05948
1386395131163,5.04482
1386395191163,5.06603
1386395251163,5.05617
1386395311163,5.06043
1386395371163,5.08174
1386395431163,5.07714
1386395491163,5.08246
1386395551163,5.07667
1386395611163,5.09407
1386395671163,5.07628
1386395731163,5.07395
1386395791163,5.07196
1386395851163,5.09253
1386395911163,5.10887
1386395971163,5.09574
1386396031173,5.03889
1386396091173,5.07105
1386396151173,5.06771
1386396211173,5.09957
1386396271173,5.11160
1386396331173,5.08206
1386396391173,5.10514
1386396451173,5.08573
1386396511173,5.10167
1386396571173,5.10401
1386396631173,5.12639
1386396691173,5.05525
1386396751173,5.10434
1386396811173,5.05788
1386396871173,5.10065
1386396931173,5.07288
1386396991173,5.08233
1386397051173,5.07770
1386397111173,5.06581
1386397171173,5.07344
1386397231173,5.11241
1386397291173,5.02118
1386397351173,5.09520
1386397411173,5.07735
1386397471173,5.09326
1386397531173,5.07385
1386397591173,5.11260
1386397651173,5.09970
1386397711173,5.09141
1386397771173,5.07165
1386397831173,5.11710
1386397891173,5.05905
1386397951173,5.11200
1386398011173,5.11203
1386398071173,5.09511
1386398131173,5.09866
1386398191173,5.06669
1386398251173,5.14565
1386398311173,5.10395
1386398371173,5.06723
1386398431173,5.12101
1386398491173,5.12814
1386398551173,5.13698
1386398611173,5.15002
1386398671173,5.14834
1386398731173,5.15131
1386398791173,5.13419
1386398851173,5.13653
1386398911173,5.13213
1386398971173,5.16259
1386399031173,5.17796
1386399091173,5.11676
1386399151173,5.11515
1386399211173,5.12493
1386399271173,5.11386
1386399331173,5.11353
1386399391173,5.12773
1386399451173,5.10141
1386399511173,5.12052
1386399571173,5.12383
1386399631184,5.11495
1386399691184,5.13706
1386399751184,5.11655
1386399811184,5.14556
1386399871184,5.14802
1386399931184,5.11429
1386399991184,5.09927
1386400051184,5.13110
1386400111184,5.12993
1386400171184,5.12634
1386400231184,5.12854
1386400291184,5.15175
1386400351184,5.17290
1386400411184,5.19046
1386400471184,5.18464
1386400531184,5.20502
1386400591184,5.19544
1386400651184,5.22924
1386400711184,5.26210
1386400771184,5.29149
1386400831184,5.37869
1386400891184,5.54529
1386400951184,5.78635
1386401011184,6.00303
1386401071184,6.19176
1386401131184,6.37162
1386401191184,6.52072
1386401251184,6.60761
1386401311184,6.65335
1386401371184,6.68651
1386401431184,6.71581
1386401491184,6.68829
1386401551184,6.64195
1386401611184,6.57018
1386401671184,6.55923
1386401731184,6.49416
1386401791184,6.46084
1386401851184,6.38290
1386401911184,6.37206
1386401971184,6.30543
1386402031184,6.24003
1386402091184,6.22670
1386402151184,6.12777
1386402211184,6.12976
1386402271184,6.04961
1386402331184,6.06075
1386402391184,6.02096
1386402451184,5.95831
1386402511184,5.90216
1386402571184,5.91145
1386402631184,5.85177
1386402691184,5.81903
1386402751184,5.79511
1386402811184,5.80948
1386402871184,5.76075
1386402931184,5.79202
1386402991184,5.71710
1386403051184,5.71415
1386403111184,5.70485
1386403171184,5.65179
1386403231194,5.64576
1386403291194,5.63183
1386403351194,5.59140
1386403411194,5.62042
1386403471194,5.55697
1386403531194,5.55057
1386403591194,5.57898
1386403651194,5.58077
1386403711194,5.51649
1386403771194,5.53766
1386403831194,5.49542
1386403891194,5.49666
1386403951194,5.48165
1386404011194,5.41990
1386404071194,5.44994
1386404131194,5.45880
1386404191194,5.40060
1386404251194,5.40017
1386404311194,5.37880
1386404371194,5.36442
1386404431194,5.35630
1386404491194,5.35180
1386404551194,5.38727
1386404611194,5.34294
1386404671194,5.32797
1386404731194,5.28580
1386404791194,5.30176
1386404851194,5.31771
1386404911194,5.27734
1386404971194,5.24824
1386405031194,5.26154
1386405091194,5.26180
1386405151194,5.27991
1386405211194,5.24333
1386405271194,5.21819
1386405331194,5.20816
1386405391194,5.22649
1386405451194,5.23931
1386405511194,5.19456
1386405571194,5.25192
1386405631194,5.22491
1386405691194,5.22008
1386405751194,5.17859
1386405811194,5.16870
1386405871194,5.20165
1386405931194,5.19639
1386405991194,5.15891
1386406051194,5.18022
1386406111194,5.15832
1386406171194,5.19359
1386406231194,5.15419
1386406291194,5.14477
1386406351194,5.16917
1386406411194,5.15751
1386406471194,5.13988
1386406531194,5.15200
1386406591194,5.14921
1386406651194,5.15044
1386406711194,5.15887
1386406771194,5.13156
1386406831205,5.17764
1386406891205,5.21114
1386406951205,5.15501
1386407011205,5.14911
1386407071205,5.14993
1386407131205,5.13009
1386407191205,5.13577
1386407251205,5.14394
1386407311205,5.15392
1386407371205,5.11675
1386407431205,5.13456
1386407491205,5.07768
1386407551205,5.08986
1386407611205,5.09390
1386407671205,5.11878
1386407731205,5.11209
1386407791205,5.11330
1386407851205,5.10591
1386407911205,5.11471
1386407971205,5.11974
1386408031205,5.07584
1386408091205,5.11415
1386408151205,5.09614
1386408211205,5.09924
1386408271205,5.09893
1386408331205,5.09644
1386408391205,5.12208
1386408451205,5.10806
1386408511205,5.12161
1386408571205,5.07600
1386408631205,5.11053
1386408691205,5.12087
1386408751205,5.10672
1386408811205,5.09169
1386408871205,5.10585
1386408931205,5.09445
1386408991205,5.09277
1386409051205,5.08859
1386409111205,5.07126
1386409171205,5.08578
1386409231205,5.06472
1386409291205,5.09414
1386409351205,5.07881
1386409411205,5.07810
1386409471205,5.12924
1386409531205,5.10542
1386409591205,5.10366
1386409651205,5.08756
1386409711205,5.11283
1386409771205,5.05918
1386409831205,5.09232
1386409891205,5.10691
1386409951205,5.10572
1386410011205,5.12837
1386410071205,5.11050
1386410131205,5.05760
1386410191205,5.11166
1386410251205,5.08998
1386410311205,5.07588
1386410371205,5.09753
1386410431217,5.08608
1386410491217,5.10362
1386410551217,5.05687
1386410611217,5.11349
1386410671217,5.07675
1386410731217,5.06866
1386410791217,5.11860
1386410851217,5.08667
1386410911217,5.07930
1386410971217,5.07359
1386411031217,5.07935
1386411091217,5.08677
1386411151217,5.08354
1386411211217,5.05528
1386411271217,5.08802
1386411331217,5.07706
1386411391217,5.09225
1386411451217,5.08213
1386411511217,5.08286
1386411571217,5.08850
1386411631217,5.12535
1386411691217,5.10761
1386411751217,5.08969
1386411811217,5.07824
1386411871217,5.11196
1386411931217,5.09065
1386411991217,5.11076
1386412051217,5.09421
1386412111217,5.09897
1386412171217,5.06958
1386412231217,5.12874
1386412291217,5.09788
1386412351217,5.11813
1386412411217,5.08116
1386412471217,5.11854
1386412531217,5.08742
1386412591217,5.11611
1386412651217,5.08962
1386412711217,5.11579
1386412771217,5.08852
1386412831217,5.12035
1386412891217,5.09327
1386412951217,5.11354
1386413011217,5.07667
1386413071217,5.12780
1386413131217,5.13916
1386413191217,5.13969
1386413251217,5.10399
1386413311217,5.14916
1386413371217,5.16521
1386413431217,5.14383
1386413491217,5.15564
1386413551217,5.15090
1386413611217,5.09964
1386413671217,5.15262
1386413731217,5.14490
1386413791217,5.13261
1386413851217,5.14234
1386413911217,5.13273
1386413971217,5.12666
1386414031228,5.11136
1386414091228,5.11134
1386414151228,5.13559
1386414211228,5.09334
1386414271228,5.12445
1386414331228,5.13264
1386414391228,5.11328
1386414451228,5.11783
1386414511228,5.11972
1386414571228,5.08867
1386414631228,5.11194
1386414691228,5.09513
1386414751228,5.07644
1386414811228,5.07309
1386414871228,5.10645
1386414931228,5.07136
1386414991228,5.07339
1386415051228,5.09396
1386415111228,5.05545
1386415171228,5.06534
1386415231228,5.08201
1386415291228,5.11172
1386415351228,5.10986
1386415411228,5.11377
1386415471228,5.08472
1386415531228,5.13567
1386415591228,5.10022
1386415651228,5.19869
1386415711228,5.07663
1386415771228,5.08891
1386415831228,5.10691
1386415891228,5.08665
1386415951228,5.07554
1386416011228,5.09292
1386416071228,5.06993
1386416131228,5.08315
1386416191228,5.11764
1386416251228,5.09654
1386416311228,5.11849
1386416371228,5.08257
1386416431228,5.10105
1386416491228,5.09589
1386416551228,5.13700
1386416611228,5.05945
1386416671228,5.12169
1386416731228,5.07833
1386416791228,5.10588
1386416851228,5.07959
1386416911228,5.08303
1386416971228,5.11285
1386417031228,5.06713
1386417091228,5.11022
1386417151228,5.07624
1386417211228,5.08234
1386417271228,5.08956
1386417331228,5.06570
1386417391228,5.08122
1386417451228,5.10415
1386417511228,5.06312
1386417571228,5.08839
1386417631240,5.09846
1386417691240,5.09905
1386417751240,5.08657
1386417811240,5.09005
1386417871240,5.10342
1386417931240,5.09472
1386417991240,5.12079
1386418051240,5.36294
1386418111240,5.08606
1386418171240,5.09750
1386418231240,5.12632
1386418291240,5.08282
1386418351240,5.13228
1386418411240,5.12740
1386418471240,5.08500
1386418531240,5.08536
1386418591240,5.09278
1386418651240,5.08422
1386418711240,5.07152
1386418771240,5.09007
1386418831240,5.12750
1386418891240,5.09768
1386418951240,5.10721
1386419011240,5.14095
1386419071240,5.09373
1386419131240,5.09671
1386419191240,5.08933
1386419251240,5.12658
1386419311240,5.07306
1386419371240,5.10675
1386419431240,5.10025
1386419491240,5.11303
1386419551240,5.14543
1386419611240,5.11806
1386419671240,5.09917
1386419731240,5.08480
1386419791240,5.10524
1386419851240,5.10968
1386419911240,5.08850
1386419971240,5.08471
1386420031240,5.08812
1386420091240,5.11883
1386420151240,5.11579
1386420211240,5.10923
1386420271240,5.09547
1386420331240,5.14062
1386420391240,5.15764
1386420451240,5.10838
1386420511240,5.12870
1386420571240,5.09946
1386420631240,5.13182
1386420691240,5.11331
1386420751240,5.09470
1386420811240,5.14840
1386420871240,5.12239
1386420931240,5.06062
1386420991240,5.11198
1386421051240,5.13141
1386421111240,5.12200
1386421171240,5.09817
1386421231251,5.12640
1386421291251,5.09230
1386421351251,5.09940
1386421411251,5.11733
1386421471251,5.09232
1386421531251,5.09377
1386421591251,5.11159
1386421651251,5.10933
1386421711251,5.10781
1386421771251,5.11240
1386421831251,5.09795
1386421891251,5.10691
1386421951251,5.09117
1386422011251,5.16468
1386422071251,5.09672
1386422131251,5.09590
1386422191251,5.08339
1386422251251,5.13677
1386422311251,5.17077
1386422371251,5.14456
1386422431251,5.12857
1386422491251,5.12775
1386422551251,5.08722
1386422611251,5.09594
1386422671251,5.12462
1386422731251,5.11762
1386422791251,5.09704
1386422851251,5.11237
1386422911251,5.10932
1386422971251,5.10000
1386423031251,5.10331
1386423091251,5.12637
1386423151251,5.07154
1386423211251,5.11858
1386423271251,5.10629
1386423331251,5.11382
1386423391251,5.12047
1386423451251,5.10246
1386423511251,5.11962
1386423571251,5.10752
1386423631251,5.13485
1386423691251,5.09765
1386423751251,5.11563
1386423811251,5.07352
1386423871251,5.14460
1386423931251,5.15097
1386423991251,5.10880
1386424051251,5.08181
1386424111251,5.09222
1386424171251,5.16820
1386424231251,5.14636
1386424291251,5.13253
1386424351251,5.15279
1386424411251,5.16307
1386424471251,5.12111
1386424531251,5.15673
1386424591251,5.13289
1386424651251,5.14647
1386424711251,5.12905
1386424771251,5.16822
1386424831263,5.13900
1386424891263,5.11458
1386424951263,5.12405
1386425011263,5.11948
1386425071263,5.10911
1386425131263,5.16386
1386425191263,5.14767
1386425251263,5.17129
1386425311263,5.10429
1386425371263,5.13866
1386425431263,5.15887
1386425491263,5.15269
1386425551263,5.16167
1386425611263,5.12319
1386425671263,5.14298
1386425731263,5.13858
1386425791263,5.13697
1386425851263,5.12471
1386425911263,5.15553
1386425971263,5.12589
1386426031263,5.13413
1386426091263,5.13160
1386426151263,5.10742
1386426211263,5.14725
1386426271263,5.13985
1386426331263,5.11845
1386426391263,5.11036
1386426451263,5.11667
1386426511263,5.13718
1386426571263,5.12478
1386426631263,5.12160
1386426691263,5.11147
1386426751263,5.12627
1386426811263,5.15370
1386426871263,5.12616
1386426931263,5.15393
1386426991263,5.09617
1386427051263,5.12122
1386427111263,5.14363
1386427171263,5.14435
1386427231263,5.12524
1386427291263,5.12851
1386427351263,5.14162
1386427411263,5.15169
1386427471263,5.16396
1386427531263,5.15839
1386427591263,5.14860
1386427651263,5.12584
1386427711263,5.12401
1386427771263,5.12910
1386427831263,5.10237
1386427891263,5.17726
1386427951263,5.11708
1386428011263,5.13345
1386428071263,5.12463
1386428131263,5.17083
1386428191263,5.15675
1386428251263,5.10255
1386428311263,5.11194
1386428371263,5.14562
1386428431274,5.13069
1386428491274,5.09856
1386428551274,5.11614
1386428611274,5.11291
1386428671274,5.13520
1386428731274,5.16550
1386428791274,5.15470
1386428851274,5.13486
1386428911274,5.13377
1386428971274,5.10656
1386429031274,5.16746
1386429091274,5.11935
1386429151274,5.06160
1386429211274,5.13810
1386429271274,5.13843
1386429331274,5.11373
1386429391274,5.12783
1386429451274,5.13173
1386429511274,5.15250
1386429571274,5.14034
1386429631274,5.13511
1386429691274,5.13425
1386429751274,5.12765
1386429811274,5.13213
1386429871274,5.11535
1386429931274,5.10273
1386429991274,5.09833
1386430051274,5.08082
1386430111274,5.12013
1386430171274,5.08330
1386430231274,5.09853
1386430291274,5.10484
1386430351274,5.16058
1386430411274,5.09677
1386430471274,5.13047
1386430531274,5.15496
1386430591274,5.12695
1386430651274,5.08334
1386430711274,5.11540
1386430771274,5.10722
1386430831274,5.12599
1386430891274,5.12152
1386430951274,5.10751
1386431011274,5.08734
1386431071274,5.09733
1386431131274,5.15792
1386431191274,5.08967
1386431251274,5.09432
1386431311274,5.11552
1386431371274,5.11087
1386431431274,5.10641
1386431491274,5.10522
1386431551274,5.08664
1386431611274,5.09806
1386431671274,5.09535
1386431731274,5.11154
1386431791274,5.09057
1386431851274,5.10559
1386431911274,5.10118
1386431971274,5.11242
1386432031286,5.12415
1386432091286,5.12780
1386432151286,5.11891
1386432211286,5.11321
1386432271286,5.10030
1386432331286,5.10095
1386432391286,5.10697
1386432451286,5.10742
1386432511286,5.10270
1386432571286,5.11294
1386432631286,5.09563
1386432691286,5.12003
1386432751286,5.11837
1386432811286,5.12107
1386432871286,5.14152
1386432931286,5.12420
1386432991286,5.17029
1386433051286,5.14421
1386433111286,5.15213
1386433171286,5.14683
1386433231286,5.13063
1386433291286,5.14993
1386433351286,5.18235
1386433411286,5.15735
1386433471286,5.17257
1386433531286,5.14184
1386433591286,5.14885
1386433651286,5.12690
1386433711286,5.13373
1386433771286,5.11014
1386433831286,5.15683
1386433891286,5.14821
1386433951286,5.13706
1386434011286,5.14264
1386434071286,5.12684
1386434131286,5.14598
1386434191286,5.13501
1386434251286,5.14182
1386434311286,5.15540
1386434371286,5.12931
1386434431286,5.13400
1386434491286,5.15788
1386434551286,5.15894
1386434611286,5.16759
1386434671286,5.13263
1386434731286,5.11093
1386434791286,5.12709
1386434851286,5.15124
1386434911286,5.13284
1386434971286,5.14938
1386435031286,5.19186
1386435091286,5.13298
1386435151286,5.12483
1386435211286,5.15242
1386435271286,5.12772
1386435331286,5.12560
1386435391286,5.12712
1386435451286,5.14375
1386435511286,5.13767
1386435571286,5.13401
1386435631297,5.13901
1386435691297,5.14251
1386435751297,5.16185
1386435811297,5.16920
1386435871297,5.13500
1386435931297,5.12540
1386435991297,5.15404
1386436051297,5.11594
1386436111297,5.13915
1386436171297,5.14345
1386436231297,5.09733
1386436291297,5.13089
1386436351297,5.09441
1386436411297,5.09888
1386436471297,5.15199
1386436531297,5.13040
1386436591297,5.16518
1386436651297,5.11665
1386436711297,5.12336
1386436771297,5.15382
1386436831297,5.11393
1386436891297,5.11142
1386436951297,5.12414
1386437011297,5.11564
1386437071297,5.15037
1386437131297,5.10258
1386437191297,5.11310
1386437251297,5.16687
1386437311297,5.11955
1386437371297,5.12187
1386437431297,5.12790
1386437491297,5.11928
1386437551297,5.10605
1386437611297,5.15464
1386437671297,5.09863
1386437731297,5.16175
1386437791297,5.17738
1386437851297,5.22799
1386437911297,5.24341
1386437971297,5.28100
1386438031297,5.26578
1386438091297,5.27674
1386438151297,5.31293
1386438211297,5.27366
1386438271297,5.24615
1386438331297,5.27471
1386438391297,5.29747
1386438451297,5.25349
1386438511297,5.23783
1386438571297,5.19677
1386438631297,5.18745
1386438691297,5.17699
1386438751297,5.14114
1386438811297,5.15991
1386438871297,5.19021
1386438931297,5.21321
1386438991297,5.17961
1386439051297,5.22774
1386439111297,5.24466
1386439171297,5.17058
1386439231309,5.21871
1386439291309,5.17864
1386439351309,5.20147
1386439411309,5.18210
1386439471309,5.21692
1386439531309,5.16855
1386439591309,5.19109
1386439651309,5.19111
1386439711309,5.15668
1386439771309,5.18381